Flag for U.S.A. Weather past 2 weeks in Kansas City, Missouri, U.S.A.

Now
82 °F

Sunny.


Feels Like: 87 °F
Forecast: 72 / 88 °F
Wind: 12 mph from Southwest

Location: Kansas City Downtown Airport

Current Time: Jul 6, 2015 at 10:42:06 AM

Latest Report: Jul 6, 2015 at 9:54 AM


Visibility: 10 mi

Pressure: 29.88 "Hg

Humidity: 72%

Dew point: 72 °F

Location of Kansas CityLocation

Historic Weather in Kansas City — Graph

°F

Kansas City temperature yesterday

Maximum temperature yesterday: 89 °F (at 3:54 PM)
Minimum temperature yesterday: 70 °F (at 5:54 AM)
Average temperature yesterday: 81 °F

Past Weeks' High & Low Weather Summary

 TemperatureHumidityPressure
High96 °F (Jun 24, 3:54 PM)94% (Jul 4, 4:54 AM)30.18 "Hg (Jul 4, 4:54 AM)
Low64 °F (Jul 4, 5:54 AM)35% (Jun 25, 9:54 PM)29.76 "Hg (Jul 1, 7:54 PM)
Average78 °F68%29.91 "Hg
* Reported Jun 21 8:54 AM — Jul 6 8:54 AM, Kansas City, Weather by CustomWeather, © 2015

Note: Actual official high and low records may vary slightly from our data, if they occured in-between our weather recording intervals... More about our weather records

Advertising

Kansas City weather history for previous 24 hours

 ConditionsComfort  
Time TempWeatherWind HumidityBarometerVisibility
8:54 AM
Mon, Jul 6
79 °FSunny.9 mph77%29.88 "Hg10 mi
7:54 AM79 °FSunny.12 mph77%29.88 "Hg10 mi
6:54 AM77 °FClear.9 mph79%29.88 "Hg10 mi
5:54 AM76 °FClear.10 mph82%29.86 "Hg10 mi
4:54 AM75 °FClear.15 mph82%29.85 "Hg10 mi
3:54 AM76 °FClear.14 mph80%29.87 "Hg10 mi
2:54 AM77 °FClear.13 mph74%29.85 "Hg10 mi
1:54 AM77 °FClear.10 mph77%29.88 "Hg10 mi
12:54 AM79 °FClear.8 mph69%29.87 "Hg10 mi
11:54 PM
Sun, Jul 5
81 °FClear.8 mph67%29.86 "Hg10 mi
10:54 PM82 °FClear.13 mph67%29.85 "Hg10 mi
9:54 PM85 °FClear.14 mph70%29.86 "Hg10 mi
8:54 PM87 °FSunny.9 mph65%29.85 "Hg10 mi
7:54 PM88 °FSunny.10 mph63%29.85 "Hg10 mi
6:54 PM88 °FSunny.9 mph65%29.85 "Hg10 mi
5:54 PM89 °FPassing clouds.9 mph61%29.86 "Hg10 mi
4:54 PM89 °FSunny.12 mph61%29.87 "Hg10 mi
3:54 PM89 °FPassing clouds.9 mph63%29.88 "Hg10 mi
2:54 PM88 °FSunny.12 mph63%29.90 "Hg10 mi
1:54 PM87 °FPassing clouds.10 mph63%29.90 "Hg10 mi
12:54 PM88 °FSunny.10 mph63%29.93 "Hg10 mi
11:54 AM86 °FSunny.12 mph61%29.94 "Hg10 mi
10:54 AM84 °FSunny.14 mph65%29.95 "Hg10 mi
Weather by CustomWeather, © 2015

See weather overviewHow to use our weather pages